Flag for United Kingdom Weather past 2 weeks in Stoke-on-Trent, England, United Kingdom

Now
46 °F

Clear.


Feels Like: 46 °F
Forecast: 39 / 64 °F
Wind: 2 mph from North

Location: Manchester Airport

Current Time: Sep 22, 2014 at 12:06:54 AM

Latest Report: Sep 21, 2014 at 11:20 PM


Visibility: 5 mi

Pressure: 30.33 "Hg

Humidity: 82%

Dew point: 41 °F

Location of Stoke-on-TrentLocation

Historic Weather in Stoke-on-Trent — Graph

°F

Stoke-on-Trent temperature yesterday

Maximum temperature yesterday: 63 °F (at 12:20 PM)
Minimum temperature yesterday: 45 °F (at 10:50 PM)
Average temperature yesterday: 54 °F

Past Weeks' High & Low Weather Summary

 TemperatureHumidityPressure
High72 °F (Sep 10, 2:20 PM)100% (Sep 6, 11:20 PM)30.39 "Hg (Sep 6, 11:20 PM)
Low45 °F (Sep 7, 3:50 AM)47% (Sep 16, 3:20 PM)29.86 "Hg (Sep 18, 4:20 AM)
Average58 °F82%30.12 "Hg
* Reported Sep 6 10:20 PM — Sep 21 10:50 PM, Stoke-on-Trent, Weather by CustomWeather, © 2014

Note: Actual official high and low records may vary slightly from our data, if they occured in-between our weather recording intervals... More about our weather records

Advertising

Stoke-on-Trent weather history for previous 24 hours

 ConditionsComfort  
Time TempWeatherWind HumidityBarometerVisibility
10:50 PM
Sep 21
45 °FQuite cool.5 mph87%30.33 "Hg4 mi
10:20 PM46 °FClear.5 mph82%30.33 "Hg6 mi
9:50 PM46 °FClear.5 mph87%30.33 "Hg6 mi
9:20 PM46 °FClear.5 mph87%30.33 "Hg6 mi
8:50 PM48 °FClear.5 mph87%30.33 "Hg6 mi
8:20 PM50 °FClear.3 mph82%30.33 "Hg6 mi
7:50 PM54 °FSunny.5 mph67%30.33 "Hg10 mi
7:20 PM54 °FSunny.6 mph67%30.33 "Hg10 mi
6:50 PM55 °FSunny.9 mph67%30.33 "Hg10 mi
6:20 PM57 °FSunny.6 mph63%30.33 "Hg10 mi
5:50 PM59 °FScattered clouds.12 mph59%30.33 "HgN/A
5:20 PM61 °FPassing clouds.7 mph52%30.30 "HgN/A
4:50 PM63 °FScattered clouds.10 mph52%30.30 "HgN/A
4:20 PM61 °FPartly sunny.12 mph55%30.30 "HgN/A
3:20 PM63 °FScattered clouds.9 mph52%30.30 "HgN/A
2:50 PM63 °FScattered clouds.8 mph52%30.30 "HgN/A
2:20 PM61 °FBroken clouds.12 mph55%30.30 "HgN/A
1:50 PM63 °FScattered clouds.8 mph52%30.30 "HgN/A
1:20 PM61 °FScattered clouds.8 mph59%30.30 "HgN/A
12:50 PM61 °FScattered clouds.10 mph59%30.30 "HgN/A
12:20 PM63 °FPassing clouds.9 mph56%30.30 "HgN/A
11:50 AM61 °FPassing clouds.9 mph59%30.30 "HgN/A
11:20 AM59 °FPassing clouds.9 mph63%30.30 "HgN/A
10:50 AM59 °FPassing clouds.7 mph68%30.30 "HgN/A
10:20 AM57 °FPassing clouds.8 mph72%30.30 "HgN/A
9:50 AM55 °FPassing clouds.7 mph77%30.30 "HgN/A
9:20 AM55 °FPassing clouds.3 mph82%30.30 "HgN/A
8:50 AM54 °FPassing clouds.No wind88%30.27 "HgN/A
8:20 AM50 °FPassing clouds.2 mph94%30.27 "Hg6 mi
7:50 AM46 °FFog.No wind100%30.27 "HgN/A
7:20 AM46 °FFog.2 mph100%30.27 "HgN/A
6:50 AM46 °FFog.2 mph100%30.24 "HgN/A
6:20 AM46 °FClear.2 mph100%30.24 "Hg10 mi
5:50 AM50 °FClear.5 mph94%30.24 "Hg10 mi
5:20 AM50 °FClear.No wind94%30.24 "Hg10 mi
4:50 AM50 °FClear.2 mph94%30.24 "Hg10 mi
4:20 AM50 °FClear.2 mph94%30.24 "Hg10 mi
3:50 AM50 °FClear.3 mph94%30.24 "HgN/A
3:20 AM50 °FClear.5 mph94%30.24 "HgN/A
2:50 AM50 °FClear.5 mph94%30.24 "HgN/A
2:20 AM48 °FCool.3 mph94%30.21 "Hg4 mi
1:50 AM52 °FCool.6 mph88%30.21 "HgN/A
1:20 AM52 °FCool.8 mph88%30.21 "HgN/A
12:50 AM52 °FCool.6 mph88%30.21 "HgN/A
12:20 AM54 °FCool.7 mph82%30.21 "HgN/A
Weather by CustomWeather, © 2014

See weather overviewHow to use our weather pages